ASA62 PAJN-PAYA

Flight info

Callsign ASA62
Flight time 0h 35m
Altitude 26000
Route FAKES YAK3
Aircraft B737/M-SDE2E3FGHIRWXY/LB1

Departure

Time 2026-04-14 18:13
Airport Juneau International Airport (PAJN)

Arrival

Time 2026-04-14 18:48
Airport Yakutat Airport (PAYA)
Time Latitude Longitude Altitude Speed Heading
2026-04-14 17:54 58.35850 -134.58429 33 ft 0 kts 47°
2026-04-14 18:03 58.35848 -134.58433 33 ft 2 kts 47°
2026-04-14 18:04 58.35837 -134.58454 32 ft 2 kts 47°
2026-04-14 18:04 58.35827 -134.58475 31 ft 2 kts 55°
2026-04-14 18:04 58.35820 -134.58501 33 ft 2 kts 84°
2026-04-14 18:04 58.35822 -134.58529 33 ft 2 kts 114°
2026-04-14 18:05 58.35830 -134.58553 31 ft 2 kts 145°
2026-04-14 18:05 58.35841 -134.58562 32 ft 0 kts 172°
2026-04-14 18:06 58.35840 -134.58561 32 ft 1 kts 173°
2026-04-14 18:07 58.35824 -134.58569 33 ft 4 kts 202°
2026-04-14 18:07 58.35788 -134.58611 32 ft 8 kts 204°
2026-04-14 18:07 58.35742 -134.58572 32 ft 8 kts 122°
2026-04-14 18:07 58.35723 -134.58460 31 ft 10 kts 104°
2026-04-14 18:08 58.35703 -134.58316 31 ft 12 kts 105°
2026-04-14 18:08 58.35679 -134.58143 32 ft 15 kts 105°
2026-04-14 18:08 58.35651 -134.57943 33 ft 17 kts 104°
2026-04-14 18:08 58.35620 -134.57717 33 ft 19 kts 105°
2026-04-14 18:09 58.35585 -134.57465 33 ft 21 kts 105°
2026-04-14 18:09 58.35546 -134.57186 33 ft 22 kts 105°
2026-04-14 18:09 58.35507 -134.56907 32 ft 22 kts 105°
2026-04-14 18:09 58.35469 -134.56635 31 ft 21 kts 105°
2026-04-14 18:10 58.35432 -134.56371 33 ft 20 kts 105°
2026-04-14 18:10 58.35397 -134.56115 33 ft 20 kts 105°
2026-04-14 18:10 58.35363 -134.55870 33 ft 19 kts 105°
2026-04-14 18:10 58.35330 -134.55640 31 ft 15 kts 105°
2026-04-14 18:11 58.35293 -134.55541 32 ft 8 kts 164°
2026-04-14 18:11 58.35237 -134.55553 30 ft 9 kts 189°
2026-04-14 18:11 58.35212 -134.55590 29 ft 3 kts 268°
2026-04-14 18:11 58.35214 -134.55609 30 ft 0 kts 284°
2026-04-14 18:12 58.35214 -134.55611 30 ft 2 kts 284°
2026-04-14 18:12 58.35273 -134.56038 31 ft 73 kts 284°
2026-04-14 18:12 58.35467 -134.57429 35 ft 142 kts 284°
2026-04-14 18:12 58.35739 -134.59467 431 ft 166 kts 285°
2026-04-14 18:13 58.35843 -134.61718 1282 ft 177 kts 270°
2026-04-14 18:13 58.35791 -134.64138 2034 ft 190 kts 270°
2026-04-14 18:13 58.35744 -134.66761 2714 ft 206 kts 271°
2026-04-14 18:13 58.35701 -134.69590 3291 ft 223 kts 270°
2026-04-14 18:14 58.35644 -134.72764 3636 ft 255 kts 270°
2026-04-14 18:14 58.35578 -134.76168 4520 ft 265 kts 270°
2026-04-14 18:14 58.35509 -134.79708 5507 ft 271 kts 270°
2026-04-14 18:14 58.35488 -134.83325 6450 ft 276 kts 279°
2026-04-14 18:15 58.36008 -134.86830 7432 ft 275 kts 294°
2026-04-14 18:15 58.36751 -134.90214 8418 ft 279 kts 296°
2026-04-14 18:15 58.37539 -134.93630 9389 ft 283 kts 296°
2026-04-14 18:15 58.38342 -134.97091 10280 ft 288 kts 296°
2026-04-14 18:16 58.39183 -135.00717 10669 ft 312 kts 296°
2026-04-14 18:16 58.40078 -135.04611 11250 ft 326 kts 296°
2026-04-14 18:16 58.40991 -135.08624 12113 ft 331 kts 296°
2026-04-14 18:16 58.41905 -135.12672 13058 ft 334 kts 296°
2026-04-14 18:17 58.42816 -135.16726 13919 ft 339 kts 296°
2026-04-14 18:17 58.43746 -135.20885 14718 ft 343 kts 296°
2026-04-14 18:17 58.44690 -135.25112 15568 ft 348 kts 296°
2026-04-14 18:17 58.45641 -135.29384 16509 ft 351 kts 296°
2026-04-14 18:18 58.46605 -135.33686 17408 ft 356 kts 296°
2026-04-14 18:18 58.47580 -135.38081 18203 ft 362 kts 296°
2026-04-14 18:18 58.48563 -135.42539 18998 ft 366 kts 296°
2026-04-14 18:18 58.49553 -135.47038 19848 ft 368 kts 296°
2026-04-14 18:19 58.50545 -135.51551 20789 ft 367 kts 296°
2026-04-14 18:19 58.51527 -135.56036 21823 ft 365 kts 297°
2026-04-14 18:19 58.52505 -135.60504 22829 ft 363 kts 297°
2026-04-14 18:19 58.53479 -135.64963 23672 ft 363 kts 297°
2026-04-14 18:20 58.54450 -135.69413 24420 ft 362 kts 297°
2026-04-14 18:20 58.55417 -135.73852 25192 ft 362 kts 296°
2026-04-14 18:20 58.56389 -135.78315 25553 ft 362 kts 297°
2026-04-14 18:20 58.57355 -135.82767 25735 ft 364 kts 296°
2026-04-14 18:21 58.58323 -135.87239 25721 ft 362 kts 296°
2026-04-14 18:21 58.59282 -135.91685 25724 ft 361 kts 296°
2026-04-14 18:21 58.60238 -135.96125 25721 ft 360 kts 296°
2026-04-14 18:21 58.61190 -136.00556 25719 ft 359 kts 296°
2026-04-14 18:22 58.62129 -136.04933 25720 ft 359 kts 296°
2026-04-14 18:22 58.63077 -136.09359 25719 ft 359 kts 296°
2026-04-14 18:22 58.64024 -136.13791 25719 ft 359 kts 296°
2026-04-14 18:22 58.64970 -136.18227 25718 ft 359 kts 296°
2026-04-14 18:23 58.65916 -136.22675 25725 ft 360 kts 296°
2026-04-14 18:23 58.66862 -136.27128 25720 ft 360 kts 296°
2026-04-14 18:23 58.67809 -136.31601 25722 ft 361 kts 296°
2026-04-14 18:23 58.68754 -136.36069 25699 ft 361 kts 296°
2026-04-14 18:24 58.69695 -136.40536 25711 ft 360 kts 296°
2026-04-14 18:24 58.70633 -136.44997 25754 ft 359 kts 296°
2026-04-14 18:24 58.71570 -136.49462 25733 ft 361 kts 296°
2026-04-14 18:24 58.72514 -136.53960 25728 ft 361 kts 296°
2026-04-14 18:25 58.73437 -136.58376 25733 ft 361 kts 296°
2026-04-14 18:25 58.74372 -136.62859 25740 ft 361 kts 296°
2026-04-14 18:25 58.75307 -136.67350 25736 ft 361 kts 296°
2026-04-14 18:25 58.76239 -136.71838 25751 ft 361 kts 296°
2026-04-14 18:26 58.77171 -136.76335 25704 ft 361 kts 296°
2026-04-14 18:26 58.78094 -136.80805 25746 ft 359 kts 296°
2026-04-14 18:26 58.79015 -136.85273 25749 ft 358 kts 296°
2026-04-14 18:26 58.79937 -136.89748 25738 ft 359 kts 296°
2026-04-14 18:27 58.80857 -136.94225 25743 ft 359 kts 296°
2026-04-14 18:27 58.81778 -136.98713 25692 ft 361 kts 296°
2026-04-14 18:27 58.82704 -137.03241 25415 ft 361 kts 296°
2026-04-14 18:27 58.83625 -137.07742 25033 ft 361 kts 296°
2026-04-14 18:28 58.84538 -137.12238 24655 ft 357 kts 296°
2026-04-14 18:28 58.85438 -137.16680 24293 ft 354 kts 296°
2026-04-14 18:28 58.86331 -137.21092 23898 ft 352 kts 295°
2026-04-14 18:28 58.87223 -137.25494 23453 ft 350 kts 296°
2026-04-14 18:29 58.88101 -137.29848 23053 ft 346 kts 296°
2026-04-14 18:29 58.88970 -137.34166 22598 ft 344 kts 296°
2026-04-14 18:29 58.89833 -137.38469 22192 ft 342 kts 295°
2026-04-14 18:29 58.90692 -137.42738 21762 ft 340 kts 296°
2026-04-14 18:30 58.91541 -137.46982 21432 ft 336 kts 296°
2026-04-14 18:30 58.92382 -137.51197 20958 ft 335 kts 296°
2026-04-14 18:30 58.93213 -137.55377 20597 ft 331 kts 296°
2026-04-14 18:30 58.94036 -137.59519 20195 ft 328 kts 296°
2026-04-14 18:31 58.94848 -137.63616 19803 ft 324 kts 296°
2026-04-14 18:31 58.95652 -137.67676 19424 ft 321 kts 296°
2026-04-14 18:31 58.96443 -137.71650 19054 ft 319 kts 296°
2026-04-14 18:31 58.97234 -137.75659 18653 ft 318 kts 296°
2026-04-14 18:32 58.98016 -137.79645 18264 ft 316 kts 297°
2026-04-14 18:32 58.98909 -137.83500 17876 ft 311 kts 304°
2026-04-14 18:32 58.99976 -137.87109 17447 ft 308 kts 307°
2026-04-14 18:32 59.01076 -137.90650 17051 ft 305 kts 307°
2026-04-14 18:33 59.02159 -137.94155 16706 ft 300 kts 307°
2026-04-14 18:33 59.03206 -137.97593 16508 ft 291 kts 306°
2026-04-14 18:33 59.04224 -138.00974 16198 ft 288 kts 306°
2026-04-14 18:34 59.06884 -138.09974 15274 ft 295 kts 303°
2026-04-14 18:34 59.07897 -138.13446 14890 ft 294 kts 304°
2026-04-14 18:34 59.08924 -138.16853 14539 ft 290 kts 304°
2026-04-14 18:35 59.09932 -138.20246 14193 ft 288 kts 304°
2026-04-14 18:35 59.10926 -138.23628 13839 ft 287 kts 304°
2026-04-14 18:35 59.11912 -138.26995 13597 ft 286 kts 304°
2026-04-14 18:35 59.13216 -138.31451 13235 ft 287 kts 304°
2026-04-14 18:36 59.13882 -138.33733 13055 ft 288 kts 304°
2026-04-14 18:36 59.14875 -138.37133 12780 ft 289 kts 304°
2026-04-14 18:36 59.15870 -138.40548 12509 ft 289 kts 304°
2026-04-14 18:36 59.16863 -138.43961 12232 ft 290 kts 304°
2026-04-14 18:37 59.17856 -138.47380 11947 ft 290 kts 304°
2026-04-14 18:37 59.18832 -138.50749 11684 ft 289 kts 304°
2026-04-14 18:37 59.19820 -138.54160 11413 ft 288 kts 304°
2026-04-14 18:37 59.20804 -138.57562 11164 ft 287 kts 304°
2026-04-14 18:38 59.21778 -138.60939 10887 ft 284 kts 304°
2026-04-14 18:38 59.22742 -138.64284 10531 ft 281 kts 304°
2026-04-14 18:38 59.23697 -138.67599 10131 ft 279 kts 304°
2026-04-14 18:38 59.24638 -138.70875 9766 ft 277 kts 304°
2026-04-14 18:39 59.25584 -138.74164 9268 ft 279 kts 304°
2026-04-14 18:39 59.26544 -138.77504 8691 ft 284 kts 304°
2026-04-14 18:39 59.27512 -138.80884 8107 ft 287 kts 304°
2026-04-14 18:39 59.28494 -138.84322 7585 ft 288 kts 302°
2026-04-14 18:40 59.29172 -138.88039 7217 ft 289 kts 287°
2026-04-14 18:40 59.29613 -138.91809 6960 ft 281 kts 287°
2026-04-14 18:40 59.30102 -138.95462 6648 ft 275 kts 291°
2026-04-14 18:40 59.30681 -138.99005 6304 ft 272 kts 292°
2026-04-14 18:41 59.31251 -139.02475 5948 ft 269 kts 292°
2026-04-14 18:41 59.31814 -139.05999 5601 ft 266 kts 291°
2026-04-14 18:41 59.32349 -139.09448 5277 ft 263 kts 291°
2026-04-14 18:41 59.32867 -139.12859 4952 ft 260 kts 291°
2026-04-14 18:42 59.33374 -139.16239 4648 ft 257 kts 290°
2026-04-14 18:42 59.33870 -139.19577 4346 ft 253 kts 290°
2026-04-14 18:42 59.34350 -139.22825 4026 ft 250 kts 290°
2026-04-14 18:42 59.34819 -139.26027 3916 ft 238 kts 290°
2026-04-14 18:43 59.35258 -139.29037 3901 ft 220 kts 288°
2026-04-14 18:43 59.35674 -139.31889 3701 ft 220 kts 288°
2026-04-14 18:43 59.36091 -139.34748 3406 ft 215 kts 288°
2026-04-14 18:43 59.36530 -139.37502 3177 ft 205 kts 298°
2026-04-14 18:44 59.37426 -139.39654 3094 ft 206 kts 317°
2026-04-14 18:44 59.38424 -139.41580 3062 ft 197 kts 316°
2026-04-14 18:44 59.39390 -139.43458 2801 ft 193 kts 316°
2026-04-14 18:44 59.40321 -139.45272 2573 ft 185 kts 316°
2026-04-14 18:45 59.41214 -139.47012 2321 ft 175 kts 316°
2026-04-14 18:45 59.42044 -139.48633 2110 ft 162 kts 316°
2026-04-14 18:45 59.42838 -139.50181 1902 ft 157 kts 316°
2026-04-14 18:45 59.43612 -139.51685 1750 ft 158 kts 316°
2026-04-14 18:46 59.44395 -139.53207 1543 ft 160 kts 316°
2026-04-14 18:46 59.45151 -139.54697 1370 ft 142 kts 315°
2026-04-14 18:46 59.45801 -139.56006 1148 ft 127 kts 315°
2026-04-14 18:46 59.46426 -139.57228 950 ft 129 kts 315°
2026-04-14 18:47 59.47070 -139.58515 834 ft 133 kts 315°
2026-04-14 18:47 59.47710 -139.59792 632 ft 131 kts 315°
2026-04-14 18:47 59.48372 -139.61080 424 ft 137 kts 315°
2026-04-14 18:47 59.49056 -139.62417 270 ft 140 kts 315°
2026-04-14 18:48 59.49736 -139.63748 86 ft 138 kts 315°
2026-04-14 18:48 59.50351 -139.64953 50 ft 102 kts 315°
2026-04-14 18:48 59.50710 -139.65657 49 ft 50 kts 315°
2026-04-14 18:48 59.50866 -139.65963 45 ft 22 kts 315°
2026-04-14 18:49 59.50963 -139.66154 46 ft 14 kts 315°
2026-04-14 18:49 59.50979 -139.66263 48 ft 8 kts 249°
2026-04-14 18:49 59.50945 -139.66343 45 ft 8 kts 223°
2026-04-14 18:49 59.50910 -139.66420 49 ft 7 kts 231°
2026-04-14 18:50 59.50882 -139.66502 49 ft 7 kts 243°
2026-04-14 18:50 59.50864 -139.66591 49 ft 7 kts 254°
2026-04-14 18:50 59.50856 -139.66684 49 ft 7 kts 261°
2026-04-14 18:50 59.50849 -139.66775 48 ft 7 kts 261°
2026-04-14 18:51 59.50869 -139.66847 45 ft 7 kts 339°
2026-04-14 18:51 59.50912 -139.66833 47 ft 6 kts 20°
2026-04-14 18:51 59.50936 -139.66803 45 ft 0 kts 38°